Zurück zum Katalog

CZ-2D DEB

AktivPO
NORAD 44611·DEBRIS·🇨🇳 China

Gestartet Oct 9, 2017 von Jiuquan Satellite Launch Center

Loading…

Nächste Überflüge (nächste 24 Stunden)

TLE

AktuellSource: Space-Track

Epoche: Sep 14, 2026, 05:59 UTC

1 44611U 17060D   26257.24954483  .00003582  00000-0  31966-3 0  9997
2 44611  98.2389  58.6909 0027361 180.5077 179.6120 14.96384862480460

Verfolge CZ-2D DEB in Echtzeit mit AllMySat

Download on the App Store